User: anonymous   Login
Location: ????? ????
(37.9717°N, 23.4051°E)
Time: 18:27:17
(UTC+00:00)
Language:

SL-27 R/B - Orbit

View from above orbital plane
View from above orbital plane
View from above satellite
View from above satellite

Ground track
Ground track

The orbit data is extracted from the following two-line orbital elements,

1 40354U 14084B   24173.19512090  .00051023  00000-0  31413-3 0  9993
2 40354  74.7201 201.0146 0018166 346.6982  13.3767 15.76720731535170
Epoch (UTC): 21 June 2024 04:40:58
Eccentricity: 0.0018166
inclination: 74.7201°
perigee height: 327 km
apogee height: 352 km
right ascension of ascending node: 201.0146°
argument of perigee: 346.6982°
revolutions per day: 15.76720731
mean anomaly at epoch: 13.3767°
orbit number at epoch: 53517

The dashed part of the orbit path shows where the satellite is in the earth's shadow,  

DLR